Overview Statistics Trail Chart Weather Telemetry Raw packets
 

This is the latest recevied weather packets stored in our database for station/object K7NDG. If no packets are shown the sender has not sent any weather packets the latest 10 day(s).

<< 3 4 5 6 7 8 9 >>
Time Temp. Humidity Pressure Rain* Wind** Luminosity Snow
1788542896 14.44° C 89% 1013.3 hPa 0 mm - 179 W/m² -
1788542595 14.44° C 90% 1013.2 hPa 0 mm - 157 W/m² -
1788542290 13.89° C 92% 1013.3 hPa 0 mm - 132 W/m² -
1788541985 13.89° C 93% 1013.2 hPa 0 mm - 142 W/m² -
1788541682 13.89° C 94% 1013.2 hPa 0 mm - 139 W/m² -
1788541377 13.33° C 94% 1013.1 hPa 0 mm - 135 W/m² -
1788541076 12.78° C 94% 1013 hPa 0 mm - 120 W/m² -
1788540770 12.78° C 94% 1012.9 hPa 0 mm - 91 W/m² -
1788540464 12.78° C 94% 1012.9 hPa 0 mm - 77 W/m² -
1788540160 12.22° C 94% 1012.8 hPa 0 mm - 67 W/m² -
1788539856 12.22° C 95% 1012.9 hPa 0 mm - 65 W/m² -
1788539551 12.22° C 95% 1012.9 hPa 0 mm - 76 W/m² -
1788539250 11.67° C 95% 1012.8 hPa 0 mm - 94 W/m² -
1788538946 11.67° C 95% 1012.9 hPa 0 mm - 99 W/m² -
1788538641 11.67° C 95% 1012.9 hPa 0 mm - 105 W/m² -
1788538336 11.67° C 95% 1013 hPa 0 mm - 102 W/m² -
1788538031 11.67° C 95% 1012.9 hPa 0 mm - 98 W/m² -
1788537727 11.11° C 95% 1012.9 hPa 0 mm - 100 W/m² -
1788537427 11.11° C 95% 1012.7 hPa 0 mm - 83 W/m² -
1788537126 10.56° C 95% 1012.9 hPa 0 mm - 81 W/m² -
1788536825 10.56° C 96% 1012.7 hPa 0 mm - 76 W/m² -
1788536519 10.56° C 96% 1012.9 hPa 0 mm - 72 W/m² -
1788536215 10.56° C 95% 1012.7 hPa 0 mm - 69 W/m² -
1788535910 10.56° C 95% 1012.9 hPa 0 mm - 54 W/m² -
1788535607 10° C 95% 1012.6 hPa 0 mm - 48 W/m² -

* Rain latest hour (hover to see other rain measurements)
** Current wind speed in m/s (hover to see current wind gust speed)